[[{"header":{"parameterUnit":"m.s-1","parameterCategory":1,"la1":30.2992,"la2":30.254,"lo1":-89.0895,"lo2":-89.0443,"dy":0.0025,"dx":0.0025,"nx":19,"ny":19,"refTime":"2026-03-19T03:00:00:Z","depth":0,"parameterNumber":2,"parameterNumberName":"U-component_of_WINDS"},"data":[0,0,0,-0.3832,-0.3833,-0.3872,-0.3872,-0.3935,-0.3936,0,0,0,0,0,0,0,0,0,0,0,-0.3827,-0.3828,-0.3832,-0.3833,-0.3872,-0.3872,-0.3935,-0.3936,0,0,0,0,0,0,0,0,0,0,0,-0.3827,-0.3828,-0.3828,-0.3833,-0.3872,-0.3872,-0.3935,-0.3901,0,0,0,0,0,0,0,0,0,0,-0.3861,-0.3863,-0.3827,-0.3828,-0.3833,-0.3872,-0.3872,-0.3899,-0.3903,-0.3923,0,-0.3941,0,-0.3939,-0.3941,-0.3941,0,0,0,-0.3828,-0.386,-0.3864,-0.3829,-0.3834,-0.3872,-0.3853,-0.3901,-0.3905,-0.3928,-0.3942,-0.3944,-0.394,-0.3941,-0.3941,-0.4071,-0.4072,0,0,-0.3826,-0.3838,-0.3861,-0.3867,-0.3861,-0.3852,-0.3854,-0.3903,-0.392,-0.3942,-0.3945,-0.3941,-0.3941,-0.3942,-0.407,-0.4071,0,0,0,-0.3823,-0.3837,-0.3839,-0.3865,-0.3871,-0.3853,-0.3856,-0.3918,-0.3917,-0.3946,-0.3942,-0.3942,-0.3943,-0.4069,-0.407,-0.4125,0,0,0,-0.3821,-0.3835,-0.3839,-0.3847,-0.387,-0.3894,-0.3869,-0.3914,-0.3919,-0.3942,-0.3942,-0.3944,-0.4068,-0.407,-0.4121,-0.4148,0,0,0,-0.3822,-0.3835,-0.3843,-0.3847,-0.3864,-0.3893,-0.3896,-0.3915,-0.3917,-0.3941,-0.3944,-0.4067,-0.4069,-0.4118,-0.4143,-0.4187,0,0,0,-0.3827,-0.389,-0.3844,-0.3913,-0.3864,-0.3926,-0.3895,-0.3941,-0.3967,-0.3942,-0.4068,-0.407,-0.4117,-0.414,-0.4184,-0.4227,-0.4246,0,0,-0.3913,-0.39,-0.394,-0.3901,-0.3974,-0.3919,-0.4001,-0.4013,-0.4004,-0.405,-0.4053,-0.4122,-0.4143,-0.4187,-0.4346,-0.4361,0,0,0,-0.3972,-0.4001,-0.4018,-0.4043,-0.4055,-0.4067,-0.4066,-0.4071,-0.4109,-0.403,-0.4149,-0.4161,-0.4186,-0.4206,-0.4219,-0.4241,-0.408,-0.408,-0.4079,-0.4112,-0.4097,-0.4163,-0.4154,-0.4179,-0.4178,-0.4198,-0.4205,-0.4182,-0.4211,-0.4225,-0.4323,-0.4347,-0.4357,-0.4379,-0.4245,-0.4246,-0.4246,-0.4246,-0.4238,-0.4277,-0.4247,-0.4299,-0.4285,-0.4329,-0.4331,-0.4314,-0.4354,-0.4311,-0.4332,-0.4288,-0.4374,-0.4393,-0.425,-0.4249,-0.4249,-0.4248,-0.4248,-0.4329,-0.4345,-0.435,-0.4388,-0.4418,-0.4407,-0.4448,-0.4432,-0.4418,-0.4439,-0.4453,-0.4452,-0.445,-0.4446,-0.4447,-0.4447,-0.4447,-0.4448,-0.4448,-0.4421,-0.4425,-0.4461,-0.448,-0.4495,-0.4514,-0.4515,-0.453,-0.4544,-0.4529,-0.4529,-0.4506,-0.4384,-0.4355,-0.4453,-0.4452,-0.4452,-0.4451,-0.4451,-0.4556,-0.4524,-0.4579,-0.4595,-0.4617,-0.4649,-0.4629,-0.4662,-0.4673,-0.4694,-0.4665,-0.4578,-0.4564,-0.4553,-0.4529,-0.4667,-0.4667,-0.4667,-0.4667,-0.4634,-0.4625,-0.4679,-0.4706,-0.4731,-0.4719,-0.4784,-0.4786,-0.4783,-0.4789,-0.4767,-0.4733,-0.4723,-0.4715,-0.4702,-0.4679,-0.4852,-0.4852,-0.4852,-0.4717,-0.4711,-0.4768,-0.4765,-0.4781,-0.4796,-0.4857,-0.4891,-0.4881,-0.4859,-0.4794,-0.4787,-0.4732,-0.4714,-0.4692,-0.4671,-0.4628,0,0]},{"header":{"parameterUnit":"m.s-1","parameterCategory":1,"la1":30.2992,"la2":30.254,"lo1":-89.0895,"lo2":-89.0443,"dy":0.0025,"dx":0.0025,"nx":19,"ny":19,"refTime":"2026-03-19T03:00:00:Z","depth":0,"parameterNumber":3,"parameterNumberName":"V-component_of_WINDS"},"data":[0,0,0,1.3897,1.3897,1.3876,1.3876,1.3839,1.3838,0,0,0,0,0,0,0,0,0,0,0,1.3898,1.3897,1.3897,1.3897,1.3876,1.3876,1.3839,1.3838,0,0,0,0,0,0,0,0,0,0,0,1.3898,1.3897,1.3897,1.3896,1.3876,1.3876,1.3839,1.3858,0,0,0,0,0,0,0,0,0,0,1.388,1.3875,1.3898,1.3897,1.3896,1.3876,1.3876,1.3859,1.3857,1.3844,0,1.3832,0,1.3834,1.3835,1.3835,0,0,0,1.39,1.3877,1.3877,1.3897,1.3896,1.3876,1.3886,1.3858,1.3855,1.384,1.3831,1.383,1.3834,1.3835,1.3835,1.3748,1.3747,0,0,1.3901,1.3891,1.3878,1.3875,1.3879,1.3887,1.3886,1.3856,1.3845,1.3831,1.3829,1.3833,1.3835,1.3834,1.3748,1.3748,0,0,0,1.3902,1.3891,1.3892,1.3876,1.3873,1.3886,1.3885,1.3846,1.3848,1.3829,1.3833,1.3834,1.3834,1.3749,1.3748,1.3707,0,0,0,1.3903,1.3892,1.3892,1.3886,1.3874,1.386,1.3875,1.385,1.3847,1.3833,1.3834,1.3833,1.375,1.3748,1.371,1.3689,0,0,0,1.3901,1.3892,1.3887,1.3885,1.3876,1.3861,1.386,1.3849,1.3849,1.3835,1.3833,1.375,1.3749,1.3712,1.3693,1.3661,0,0,0,1.3895,1.3852,1.3886,1.384,1.3876,1.3837,1.3861,1.3832,1.3815,1.3834,1.375,1.3748,1.3713,1.3695,1.3663,1.363,1.3617,0,0,1.3835,1.3845,1.3818,1.3848,1.3799,1.3841,1.3786,1.3781,1.379,1.3761,1.3759,1.3709,1.3693,1.3662,1.3547,1.3536,0,0,0,1.3795,1.3775,1.3765,1.3749,1.3745,1.3738,1.3743,1.3741,1.3717,1.3773,1.3691,1.3682,1.3664,1.3648,1.3639,1.3622,1.3741,1.3742,1.3742,1.3693,1.3706,1.3662,1.3672,1.3656,1.3661,1.3649,1.3647,1.3665,1.3645,1.3636,1.3565,1.3547,1.3539,1.3522,1.3622,1.3622,1.3622,1.3622,1.3603,1.3575,1.3601,1.3567,1.358,1.3551,1.3554,1.3568,1.3541,1.3574,1.3558,1.3589,1.3527,1.3512,1.3619,1.3619,1.362,1.362,1.362,1.3535,1.3524,1.3523,1.35,1.3481,1.3494,1.3467,1.3481,1.3494,1.3479,1.3469,1.3469,1.3469,1.3474,1.3473,1.3473,1.3473,1.3473,1.3473,1.3463,1.3463,1.3439,1.343,1.3421,1.3411,1.3415,1.3406,1.3399,1.3412,1.3412,1.3429,1.352,1.354,1.3469,1.3469,1.347,1.347,1.3471,1.3361,1.3387,1.3349,1.334,1.333,1.3309,1.3328,1.3308,1.3303,1.3288,1.331,1.3376,1.3386,1.3394,1.3411,1.331,1.331,1.331,1.331,1.3301,1.3309,1.3273,1.3257,1.3243,1.3256,1.3211,1.3214,1.322,1.3217,1.3235,1.3259,1.3267,1.3272,1.3283,1.3298,1.3171,1.3171,1.3171,1.3238,1.3245,1.3204,1.3212,1.3205,1.3198,1.3155,1.3134,1.3147,1.3166,1.3214,1.322,1.326,1.3273,1.329,1.3305,1.3335,0,0]}]]